Content
SEND FEEDBACK

Daily
Averages
Monthly
Summary
United States of America

BURLESON, TEXAS


Home > North America > United States > Texas
Elevation: 710 feet     Latitude: 32 33N     Longitude: 097 19W

WEATHER
 
SELECT A DAY
Number of Records: 199,038;   Date Range: 12/16/01 - 4/15/14
 
SHARE

PRINT THIS DATA

[ ← Previous Day ]
WEATHER ALMANAC - JANUARY 31, 2013
[ Next Day → ]
[ °C ]   °F
Weather ElementAverageHighLow
Temperature46.8 °F69.8 °F (2:52 pm)32 °F (6:53 am)
Dewpoint25 °F32 °F (9:15 pm)19.4 °F (12:47 pm)
Humidity47.5 %75 % (1:15 am)15 % (2:52 pm)
Barometer30.19 in30.32 in (11:35 pm)30.12 in (2:52 pm)
Wind Speed7.4 mph19.6 mph (2:52 pm)
Wind Gust27.6 mph (2:52 pm)
Weather ElementAverage
Visibility10 mi
Wind DirectionSSE (154.1 °)

Weather ElementTotal
Precipitation---
Heating Degree Days14.1 (Base 65)
Growing Degree Days0.9 (Base 50)
Averaged from 44 records on January 31, 2013
WEATHER CONDITIONS BREAKOUT
WIND DIRECTION BREAKOUT
WEATHER BY HOUR - JANUARY 31, 2013
[ °C ]   °F
Local TimeTemperatureDewpointHumidityBarometerVisibilityWind DirectionWind SpeedGust SpeedPrecipitationEventsConditions
12:35 AM33.8 °F24.8 °F70 %30.15 in10.0 miSSW (200°)3.5 mphClear
12:55 AM33.8 °F24.8 °F70 %30.16 in10.0 miSSW (210°)4.6 mphClear
1:15 AM33.8 °F26.6 °F75 %30.15 in10.0 miSSW (200°)3.5 mphClear
1:35 AM33.8 °F24.8 °F70 %30.15 in10.0 miSSW (200°)5.8 mphClear
1:55 AM35.6 °F23.0 °F60 %30.16 in10.0 miSSW (200°)5.8 mphClear
2:15 AM35.6 °F23.0 °F60 %30.16 in10.0 miSSW (210°)5.8 mphClear
2:35 AM35.6 °F23.0 °F60 %30.16 in10.0 miSSW (210°)6.9 mphClear
2:55 AM35.6 °F23.0 °F60 %30.15 in10.0 miSSW (200°)6.9 mphClear
3:15 AM35.6 °F23.0 °F60 %30.16 in10.0 miSSW (200°)6.9 mphClear
3:35 AM35.6 °F23.0 °F60 %30.16 in10.0 miSSW (200°)6.9 mphClear
3:55 AM35.6 °F23.0 °F60 %30.16 in10.0 miSSW (210°)9.2 mphClear
4:15 AM35.6 °F23.0 °F60 %30.15 in10.0 miSSW (210°)5.8 mphClear
4:35 AM33.8 °F23.0 °F65 %30.15 in10.0 miSouth (190°)3.5 mphClear
4:55 AM35.6 °F21.2 °F56 %30.15 in10.0 miSouth (190°)4.6 mphClear
5:15 AM33.8 °F23.0 °F65 %30.15 in10.0 miSSW (200°)3.5 mphClear
6:53 AM32.0 °F23.0 °F69 %30.15 in10.0 miSouth (180°)4.6 mphClear
7:52 AM33.8 °F23.0 °F65 %30.18 in10.0 miSouth (170°)8.1 mphClear
8:49 AM42.8 °F24.8 °F49 %30.19 in10.0 miSouth (190°)8.1 mphClear
9:47 AM51.8 °F24.8 °F35 %30.20 in10.0 miSouth (180°)9.2 mphClear
10:51 AM57.2 °F24.8 °F29 %30.21 in10.0 miSSW (210°)12.7 mphClear
11:53 AM62.6 °F21.2 °F20 %30.20 in10.0 miSSW (200°)15.0 mph23.0 mphClear
12:47 PM64.4 °F19.4 °F18 %30.17 in10.0 miSW (230°)13.8 mph25.3 mphClear
1:50 PM68.0 °F19.4 °F16 %30.13 in10.0 miSSW (210°)13.8 mph23.0 mphClear
2:52 PM69.8 °F19.4 °F15 %30.12 in10.0 miSW (230°)19.6 mph27.6 mphClear
3:49 PM69.8 °F19.4 °F15 %30.12 in10.0 miWSW (240°)16.1 mph23.0 mphClear
4:46 PM68.0 °F19.4 °F16 %30.12 in10.0 miSW (220°)12.7 mph20.7 mphClear
5:49 PM64.4 °F21.2 °F19 %30.15 in10.0 miWSW (240°)9.2 mphClear
6:46 PM60.8 °F21.2 °F22 %30.16 in10.0 miCalmClear
6:55 PM57.2 °F23.0 °F27 %30.16 in10.0 miCalmClear
7:15 PM51.8 °F26.6 °F38 %30.17 in10.0 miCalmClear
7:35 PM53.6 °F26.6 °F35 %30.19 in10.0 miCalmClear
7:55 PM53.6 °F26.6 °F35 %30.20 in10.0 miCalmClear
8:15 PM51.8 °F26.6 °F38 %30.21 in10.0 miCalmClear
8:35 PM46.4 °F30.2 °F53 %30.23 in10.0 miCalmClear
8:55 PM50.0 °F28.4 °F43 %30.22 in10.0 miNNE (20°)3.5 mphClear
9:15 PM46.4 °F32.0 °F57 %30.24 in10.0 miNorth (360°)5.8 mphClear
9:35 PM46.4 °F30.2 °F53 %30.25 in10.0 miNorth (360°)8.1 mphClear
9:55 PM48.2 °F30.2 °F50 %30.26 in10.0 miNorth (360°)10.4 mphClear
10:15 PM51.8 °F30.2 °F44 %30.27 in10.0 miNNE (30°)12.7 mph18.4 mphClear
10:35 PM50.0 °F32.0 °F50 %30.29 in10.0 miNNE (30°)15.0 mphClear
10:55 PM48.2 °F32.0 °F54 %30.30 in10.0 miNNE (20°)13.8 mph26.5 mphClear
11:15 PM46.4 °F32.0 °F57 %30.31 in10.0 miNNE (30°)10.4 mphClear
11:35 PM44.6 °F32.0 °F61 %30.32 in10.0 miNNE (20°)10.4 mphClear
11:55 PM44.6 °F30.2 °F57 %30.32 in10.0 miNNE (20°)11.5 mphClear
Hourly data recorded from KFWS, located 1.16 miles away from Burleson, Texas







STORIES FROM OUR PARTNERS